#timestamp,LO_Frequency,Hit,StdDev 
1512180015.4,286046996.7,N
1512180035.2,286047000.0,N
1512180055.1,286047001.3,N
1512180056.0,286047001.3,N
1512180075.8,286046998.4,N
1512180095.6,286047005.1,N
1512180115.5,286047002.1,N
1512180135.3,286047001.4,N
1512180155.2,286046998.5,N
1512180175.9,286046994.9,N
1512180195.7,286046994.2,N
1512180215.6,286046991.8,N
1512180235.4,286046995.2,N
1512180255.2,286046997.1,N
1512180275.1,286047004.3,N
1512180276.0,286047004.3,N
1512180295.8,286047005.8,N
1512180315.7,286046999.2,N
1512180335.5,286046996.5,N
1512180355.3,286046996.2,N
1512180375.2,286046995.5,N
1512180395.0,286046994.4,N
1512180395.9,286046994.4,N
1512180415.8,286046990.5,N
1512180435.6,286046988.3,Y
1512180455.4,286046987.5,P
1512180475.3,286046990.0,N
1512180495.1,286046988.7,N
1512180515.8,286046987.3,Y
1512180535.7,286046993.8,P
1512180555.5,286046994.3,P
1512180575.4,286046989.2,P
1512180595.2,286046989.1,Y
1512180615.0,286047001.1,P
1512180615.9,286047001.1,N
1512180635.8,286046998.4,N
1512180655.6,286047003.3,N
1512180675.5,286047001.6,N
1512180695.3,286046997.0,N
1512180715.1,286047002.6,N
1512180735.9,286047003.5,N
1512180755.7,286047000.1,N
1512180775.5,286046996.9,N
1512180795.4,286046995.8,N
1512180815.2,286046993.8,N
1512180835.1,286046993.1,N
1512180836.0,286046993.1,N
1512180855.8,286046994.3,N
1512180875.6,286046994.1,N
1512180895.5,286046991.4,N
1512180915.3,286046987.7,Y
1512180935.2,286046988.0,P
1512180955.9,286046986.3,N
1512180975.7,286046985.8,N
1512180995.6,286046987.0,N
1512181015.4,286046987.3,N
1512181035.2,286046985.8,Y
1512181055.1,286046992.1,P
1512181056.0,286046992.1,P
1512181075.8,286046988.3,P
1512181095.7,286046986.1,Y
1512181115.5,286047001.9,P
1512181135.3,286046998.2,N
1512181155.2,286047000.6,N
1512181175.0,286046994.9,N
1512181175.9,286046994.9,N
1512181195.7,286046998.7,N
1512181215.6,286047000.8,N
1512181235.4,286047001.0,N
1512181255.3,286047001.9,N
1512181275.1,286047004.4,N
1512181276.0,286047004.4,N
1512181295.8,286047008.9,N
1512181315.7,286047007.8,N
1512181335.5,286047004.9,N
1512181355.4,286047003.3,N
1512181375.2,286047003.5,N
1512181395.0,286047004.3,N
1512181395.9,286047004.3,N
1512181415.8,286046999.8,N
1512181435.6,286047005.0,N
1512181455.4,286047007.5,N
1512181475.3,286047009.5,N
1512181495.1,286047008.6,N
1512181515.9,286047006.7,N
1512181535.7,286047009.9,N
1512181555.5,286047006.2,N
1512181575.4,286047008.7,N
1512181595.2,286047008.1,N
1512181615.0,286047003.4,N
1512181615.9,286047003.4,N
1512181635.8,286047000.0,N
1512181655.6,286047000.3,N
1512181675.5,286047000.5,N
1512181695.3,286047000.5,N
1512181715.1,286047004.4,N
1512181735.9,286047007.1,N
1512181755.7,286047005.2,N
1512181775.6,286047005.0,N
1512181795.4,286047010.9,Y
1512181815.2,286047001.4,P
1512181835.1,286047004.1,N
1512181836.0,286047004.1,N
1512181855.8,286047002.3,N
1512181875.6,286047000.2,N
1512181895.5,286046999.6,N
1512181915.3,286047003.6,N
1512181935.2,286047001.4,N
1512181955.9,286046998.7,N
1512181975.7,286046999.1,N
1512181995.6,286047000.2,N
1512182015.4,286046999.3,N
1512182035.2,286046995.8,N
1512182055.1,286046996.8,N
1512182056.0,286046996.8,N
1512182075.8,286046997.6,N
1512182095.7,286047011.9,Y
1512182115.5,286046997.1,P
1512182135.3,286046997.1,N
1512182155.2,286046990.6,P
1512182175.0,286046993.5,N
1512182175.9,286046993.5,N
1512182195.8,286046990.7,N
1512182215.6,286046994.3,N
1512182235.4,286046993.6,N
1512182255.3,286046988.5,Y
1512182275.1,286046994.5,P
1512182295.8,286046992.0,P
1512182315.7,286046993.5,P
1512182335.5,286046999.4,N
1512182355.4,286047002.7,N
1512182375.2,286047000.2,N
1512182395.0,286047003.7,N
1512182395.9,286047003.7,N
1512182415.8,286046996.6,N
1512182435.6,286046996.5,N
1512182455.4,286046997.8,N
1512182475.3,286046996.6,N
1512182495.1,286046999.4,N
1512182515.9,286046999.8,N
1512182535.7,286047002.3,N
1512182555.5,286047004.8,N
1512182575.4,286047003.2,N
1512182595.2,286047000.4,N
1512182615.0,286046995.2,N
1512182615.9,286046995.2,N
1512182635.8,286046999.2,N
1512182655.6,286046999.6,N
1512182675.5,286046999.9,N
1512182695.3,286047009.0,N
1512182715.1,286047009.2,N
1512182735.9,286047004.1,N
1512182755.7,286047000.2,N
1512182775.5,286047001.4,N
1512182795.4,286047003.0,N
1512182815.2,286047008.2,N
1512182835.1,286047007.7,N
1512182836.0,286047007.7,N
1512182855.8,286047010.5,N
1512182875.6,286047005.7,N
1512182895.5,286047003.1,N
1512182915.3,286047000.1,N
1512182935.1,286046998.2,N
1512182955.9,286047003.9,N
1512182975.7,286047002.8,N
1512182995.6,286047003.8,N
1512183015.4,286047004.2,N
1512183035.2,286047002.5,N
1512183055.1,286047004.8,N
1512183056.0,286047004.8,N
1512183075.8,286047006.6,N
1512183095.6,286047010.2,N
1512183115.5,286047006.8,N
1512183135.3,286047004.5,N
1512183155.2,286047009.8,N
1512183175.9,286047007.4,N
1512183195.7,286047009.8,N
1512183215.6,286047012.7,Y
1512183235.4,286046997.5,P
1512183255.3,286047000.7,N
1512183275.1,286046992.4,N
1512183276.0,286046992.4,N
1512183295.8,286046995.1,N
1512183315.7,286046993.9,N
1512183335.5,286046995.4,N
1512183355.3,286046995.8,N
1512183375.2,286046992.3,N
1512183395.0,286046994.3,N
1512183395.9,286046994.3,N
1512183415.8,286046996.3,N
1512183435.6,286046990.3,N
1512183455.4,286046992.4,N
1512183475.3,286046990.5,N
1512183495.1,286046986.5,Y
1512183515.8,286046985.7,P
1512183535.7,286046988.7,N
1512183555.5,286046988.6,N
1512183575.4,286046994.6,N
1512183595.2,286046995.3,N
